CW0775 Weather Reports


time (UTC)temp
F
wind
direction
speed
knots
gust
knots
rain 1hr
in
rain 24hr
in
rain mn
in
humidity
%
barometer
mb
20260901210505 56 250 0.0 0.0 0.00 0.00 0.00 88 1020.7
20260901210005 56 277 0.0 0.0 0.00 0.00 0.00 88 1020.7
20260901204506 56 277 0.0 0.0 0.00 0.00 0.00 87 1020.7
20260901204004 56 277 0.0 0.0 0.00 0.00 0.00 87 1020.7
20260901203504 57 277 0.0 2.6 0.00 0.00 0.00 86 1020.5
20260901203004 57 275 0.9 1.7 0.00 0.00 0.00 86 1020.7
20260901201504 58 275 0.0 0.0 0.00 0.00 0.00 85 1020.7
20260901201005 58 275 0.0 0.0 0.00 0.00 0.00 84 1020.7
20260901200505 58 275 0.0 0.0 0.00 0.00 0.00 84 1020.7
20260901200004 58 275 0.0 0.0 0.00 0.00 0.00 84 1020.7
20260901194505 59 275 0.0 0.0 0.00 0.00 0.00 82 1020.7
20260901194005 59 275 0.0 0.0 0.00 0.00 0.00 81 1020.7
20260901193005 59 275 0.0 0.0 0.00 0.00 0.00 80 1020.7
20260901191504 60 275 0.0 0.0 0.00 0.00 0.00 78 1020.4
20260901191004 60 275 0.0 0.0 0.00 0.00 0.00 78 1020.5
20260901190506 60 275 0.0 1.7 0.00 0.00 0.00 77 1020.7
20260901190005 61 276 0.0 1.7 0.00 0.00 0.00 77 1020.6
20260901184505 61 270 0.0 0.0 0.00 0.00 0.00 77 1020.3
20260901183504 62 274 0.0 0.0 0.00 0.00 0.00 75 1020.3
20260901183005 63 274 0.0 1.7 0.00 0.00 0.00 74 1020.1
20260901181504 65 273 0.9 1.7 0.00 0.00 0.00 69 1020.0
20260901181005 66 273 0.9 2.6 0.00 0.00 0.00 67 1020.0
20260901180506 67 273 1.7 2.6 0.00 0.00 0.00 65 1020.0
20260901180005 67 270 0.9 1.7 0.00 0.00 0.00 65 1020.0
20260901174505 69 268 0.9 1.7 0.00 0.00 0.00 60 1019.9
20260901174008 70 261 0.0 1.7 0.00 0.00 0.00 57 1019.8
20260901173504 71 260 0.0 0.0 0.00 0.00 0.00 56 1019.6
20260901171005 73 280 1.7 4.3 0.00 0.00 0.00 52 1019.6
20260901170505 73 270 0.9 4.3 0.00 0.00 0.00 52 1019.6
20260901170005 72 278 0.9 2.6 0.00 0.00 0.00 51 1019.6
20260901164005 74 289 2.6 11.3 0.00 0.00 0.00 49 1019.6
20260901163504 73 263 4.3 11.3 0.00 0.00 0.00 49 1019.6
20260901163004 73 160 1.7 6.1 0.00 0.00 0.00 52 1019.7
20260901161505 73 270 3.5 12.2 0.00 0.00 0.00 51 1019.6
20260901161004 73 279 3.5 6.1 0.00 0.00 0.00 51 1019.8
20260901160505 73 264 1.7 13.0 0.00 0.00 0.00 53 1019.7
20260901160004 73 286 5.2 13.0 0.00 0.00 0.00 50 1019.6
20260901154505 74 228 2.6 8.7 0.00 0.00 0.00 52 1020.0
20260901154005 74 282 5.2 12.2 0.00 0.00 0.00 50 1019.9
20260901153005 74 299 5.2 13.0 0.00 0.00 0.00 51 1019.6
20260901151504 73 289 3.5 11.3 0.00 0.00 0.00 52 1019.6
20260901151004 75 280 5.2 13.0 0.00 0.00 0.00 51 1019.8
20260901150506 74 321 6.1 13.0 0.00 0.00 0.00 49 1019.6
20260901150005 73 278 2.6 7.0 0.00 0.00 0.00 52 1020.0
20260901144505 74 260 5.2 11.3 0.00 0.00 0.00 50 1019.6
20260901144005 75 275 3.5 13.0 0.00 0.00 0.00 49 1019.8
20260901143504 75 279 9.6 13.0 0.00 0.01 0.00 49 1019.6
20260901143004 75 280 7.0 12.2 0.00 0.03 0.00 50 1019.6
20260901141504 75 357 1.7 6.1 0.00 0.05 0.00 51 1020.0
20260901141004 74 285 5.2 11.3 0.00 0.05 0.00 51 1019.9
20260901140505 74 319 4.3 12.2 0.00 0.05 0.00 52 1019.8
20260901140005 75 204 7.8 12.2 0.00 0.05 0.00 50 1020.0
20260901134505 75 323 2.6 8.7 0.00 0.05 0.00 52 1020.0
20260901134005 75 230 4.3 7.0 0.00 0.05 0.00 50 1020.0
20260901133504 75 269 5.2 12.2 0.00 0.05 0.00 51 1020.0
20260901131504 75 289 7.0 11.3 0.00 0.05 0.00 50 1019.7
20260901130004 75 302 7.8 12.2 0.00 0.05 0.00 51 1020.1
20260901124506 74 279 6.1 12.2 0.00 0.05 0.00 53 1020.4
20260901124004 73 277 4.3 8.7 0.00 0.05 0.00 51 1020.3
20260901123004 73 2 2.6 11.3 0.00 0.05 0.00 56 1020.3
20260901121504 72 290 5.2 11.3 0.00 0.05 0.00 59 1020.3
20260901121005 73 264 0.0 7.0 0.00 0.05 0.00 61 1020.4
20260901120504 73 268 4.3 13.0 0.00 0.05 0.00 59 1020.7
20260901120004 73 288 7.0 13.0 0.00 0.05 0.00 55 1020.7
20260901114504 70 291 1.7 11.3 0.00 0.05 0.00 63 1020.5
20260901114004 70 274 2.6 6.1 0.00 0.05 0.00 63 1020.7
20260901113505 70 270 2.6 7.0 0.00 0.05 0.00 64 1020.7
20260901111504 70 279 1.7 6.1 0.00 0.05 0.00 66 1020.7
20260901111004 71 268 3.5 6.1 0.00 0.05 0.00 65 1020.7
20260901110505 71 184 1.7 4.3 0.00 0.06 0.00 67 1020.6
20260901110004 72 169 1.7 4.3 0.00 0.07 0.00 63 1020.7
20260901104504 70 276 3.5 6.1 0.00 0.07 0.00 66 1020.7
20260901104004 71 277 2.6 4.3 0.00 0.07 0.00 65 1020.7
20260901103504 72 236 1.7 7.0 0.00 0.07 0.00 68 1020.7
20260901103004 70 279 5.2 7.0 0.00 0.07 0.00 67 1020.7
20260901101504 69 294 2.6 7.0 0.00 0.07 0.00 70 1020.9
20260901094505 70 276 5.2 8.7 0.00 0.07 0.00 70 1021.1
20260901094005 69 169 4.3 12.2 0.00 0.07 0.00 74 1021.0
20260901093504 69 289 6.1 12.2 0.00 0.07 0.00 72 1021.0
20260901093005 68 288 5.2 13.0 0.00 0.07 0.00 73 1021.0
20260901091506 67 294 4.3 7.0 0.00 0.07 0.00 77 1021.0
20260901091006 68 284 2.6 4.3 0.00 0.07 0.00 76 1021.2
20260901084505 66 290 2.6 6.1 0.00 0.07 0.00 78 1021.1
20260901084005 67 286 2.6 8.7 0.00 0.07 0.00 77 1021.2
20260901083506 68 186 1.7 4.3 0.00 0.07 0.00 77 1021.0
20260901081506 66 244 4.3 8.7 0.00 0.07 0.00 80 1021.0
20260901081006 65 274 4.3 8.7 0.00 0.07 0.00 82 1021.0
20260901080506 65 226 1.7 6.1 0.00 0.07 0.00 82 1021.1
20260901080005 65 272 3.5 7.0 0.00 0.07 0.00 81 1021.0
20260901074506 65 299 1.7 2.6 0.00 0.07 0.00 82 1021.0
20260901074005 64 245 1.7 4.3 0.00 0.07 0.00 84 1020.9
20260901073505 64 215 0.9 2.6 0.00 0.07 0.00 85 1020.7
20260901073005 63 219 1.7 6.1 0.00 0.07 0.00 86 1021.0
20260901071505 62 231 0.0 2.6 0.00 0.07 0.00 87 1021.0
20260901070005 62 276 0.0 2.6 0.00 0.07 0.00 89 1021.0
20260901064506 60 241 0.0 0.0 0.00 0.07 0.00 89 1020.7
20260901063505 60 240 0.0 1.7 0.00 0.07 0.00 90 1020.7
20260901063005 60 235 0.0 0.0 0.00 0.07 0.00 90 1020.7
20260901061505 58 245 0.0 0.0 0.00 0.07 0.00 95 1020.7
20260901061005 57 230 0.0 0.0 0.00 0.07 0.00 96 1020.7
20260901060505 57 261 0.0 0.0 0.00 0.07 0.00 96 1020.7
20260901054506 55 249 0.0 0.0 0.00 0.07 0.00 97 1020.3
20260901054005 54 250 0.0 0.0 0.00 0.07 0.00 97 1020.7
20260901053505 54 263 0.0 0.0 0.00 0.07 0.00 98 1020.3
20260901053006 54 248 0.0 2.6 0.00 0.07 0.00 98 1020.3
20260901051505 54 231 0.0 1.7 0.00 0.07 0.00 98 1020.3
20260901051005 54 216 0.9 1.7 0.00 0.07 0.00 98 1020.3
20260901050005 52 279 0.9 1.7 0.00 0.07 0.00 98 1020.1
20260901044507 52 271 0.0 0.0 0.00 0.07 0.00 98 1020.0
20260901044005 52 270 0.0 1.7 0.00 0.07 0.00 98 1020.0
20260901043506 52 269 0.0 1.7 0.00 0.07 0.00 97 1020.0
20260901043005 53 253 0.0 0.0 0.00 0.07 0.00 97 1019.9
20260901041005 53 240 0.0 0.0 0.00 0.07 0.00 97 1019.8
20260901040005 53 256 0.0 2.6 0.00 0.07 0.00 97 1019.9
20260901034505 54 268 0.0 1.7 0.00 0.07 0.00 97 1019.7
20260901034006 54 271 0.0 1.7 0.00 0.07 0.00 97 1019.8
20260901033505 54 272 0.9 1.7 0.00 0.07 0.00 97 1020.0
20260901033005 54 266 0.0 1.7 0.00 0.07 0.00 98 1019.6
20260901031505 53 259 0.0 0.0 0.00 0.07 0.00 97 1020.0
20260901031005 53 259 0.0 0.0 0.00 0.07 0.00 97 1019.6
20260901030506 52 259 0.0 0.0 0.00 0.07 0.00 98 1019.8
20260901030005 52 262 0.0 0.0 0.00 0.07 0.00 97 1020.0
20260901024505 52 270 0.0 0.0 0.00 0.07 0.00 97 1020.0
20260901024005 52 269 0.0 0.0 0.00 0.07 0.00 97 1019.6
20260901023505 52 269 0.0 0.0 0.00 0.07 0.00 97 1019.9
20260901023005 52 272 0.0 0.0 0.00 0.07 0.00 97 1019.6
20260901021504 53 269 0.0 0.0 0.00 0.07 0.00 97 1019.6
20260901021005 53 269 0.0 0.0 0.00 0.07 0.00 97 1019.6
20260901020505 53 269 0.0 0.0 0.00 0.07 0.00 97 1019.6
20260901020005 53 269 0.0 0.0 0.00 0.07 0.00 97 1019.3
20260901014005 54 274 0.0 0.0 0.00 0.07 0.00 96 1019.6
20260901013505 54 274 0.0 0.0 0.00 0.07 0.00 96 1019.3
20260901013005 54 273 0.0 1.7 0.00 0.07 0.00 96 1019.6
20260901011505 53 270 0.0 0.0 0.00 0.07 0.00 96 1019.3
20260901011005 54 270 0.0 0.0 0.00 0.07 0.00 96 1019.5
20260901010506 53 272 0.0 0.0 0.00 0.07 0.00 96 1019.3
20260901010005 53 272 0.0 0.0 0.00 0.07 0.00 96 1019.3
20260901004506 53 270 0.0 0.0 0.00 0.09 0.00 96 1019.3
20260901004005 54 270 0.0 0.0 0.00 0.13 0.00 96 1019.3
20260901003505 54 270 0.0 0.0 0.00 0.16 0.00 96 1019.3
20260901003005 54 270 0.0 1.7 0.00 0.21 0.00 96 1019.3
20260901001505 54 275 0.0 0.0 0.00 0.33 0.00 95 1019.3
20260901001004 53 275 0.0 0.0 0.00 0.36 0.00 95 1019.3
20260901000505 54 275 0.0 0.0 0.00 0.38 0.00 95 1019.3
20260901000005 54 274 0.0 1.7 0.00 0.39 0.00 95 1019.3
20260831234506 54 273 0.9 1.7 0.00 0.46 0.00 94 1019.3
20260831234005 55 275 0.0 1.7 0.00 0.47 0.00 94 1019.3
20260831233505 55 273 0.0 0.0 0.00 0.47 0.00 94 1019.3
20260831233005 55 273 0.0 0.0 0.00 0.48 0.00 94 1019.3
20260831231005 55 273 0.0 0.0 0.00 0.52 0.00 93 1019.0
20260831230506 55 273 0.0 0.0 0.00 0.53 0.00 93 1019.0
20260831230005 55 273 0.0 1.7 0.00 0.54 0.00 93 1019.0
20260831224505 56 267 0.0 1.7 0.00 0.57 0.00 92 1019.3
20260831224005 56 274 0.9 1.7 0.00 0.58 0.00 92 1019.0
20260831223505 56 274 0.9 1.7 0.00 0.59 0.00 91 1019.3
20260831223004 57 263 0.0 0.0 0.00 0.60 0.00 91 1019.3
20260831220506 58 256 0.0 1.7 0.00 0.63 0.00 89 1018.7
20260831220005 59 268 0.9 7.0 0.00 0.63 0.00 88 1018.8
20260831214505 58 275 1.7 2.6 0.00 0.63 0.63 89 1019.0
20260831214005 59 274 1.7 2.6 0.00 0.63 0.63 89 1018.6
20260831213505 59 265 0.0 0.0 0.00 0.63 0.63 88 1018.6
20260831213005 60 250 0.0 1.7 0.00 0.63 0.63 87 1018.6
20260831211504 60 262 0.0 1.7 0.00 0.63 0.63 87 1018.6